FW8883 Weather Reports


Display with metric or nautical units.
time (UTC)temp
F
wind
direction
speed
MPH
gust
MPH
rain 1hr
in
rain 24hr
in
rain mn
in
humidity
%
barometer
mb
20260505012000 63 211 1.0 6.0 0.00 0.00 0.00 51 1009.6
20260505011758 63 15 2.0 6.0 0.00 0.00 0.00 50 1009.6
20260505011002 63 155 2.0 6.0 0.00 0.00 0.00 50 1009.4
20260505010501 63 143 1.0 5.0 0.00 0.00 0.00 50 1009.4
20260505010000 63 165 2.0 5.0 0.00 0.00 0.00 49 1009.3
20260505005750 63 133 2.0 5.0 0.00 0.00 0.00 49 1009.2
20260505005001 63 119 2.0 5.0 0.00 0.00 0.00 49 1009.0
20260505004503 63 169 1.0 5.0 0.00 0.00 0.00 49 1008.9
20260505004000 63 84 0.0 3.0 0.00 0.00 0.00 49 1008.8
20260505003759 64 327 0.0 1.0 0.00 0.00 0.00 46 1008.5
20260505003005 64 327 0.0 1.0 0.00 0.00 0.00 47 1008.4
20260505002500 64 327 0.0 1.0 0.00 0.00 0.00 46 1008.3
20260505001954 65 327 0.0 1.0 0.00 0.00 0.00 46 1008.1
20260505001447 65 327 0.0 1.0 0.00 0.00 0.00 46 1008.1
20260505000942 65 327 0.0 1.0 0.00 0.00 0.00 45 1008.0
20260505000436 66 327 0.0 2.0 0.00 0.00 0.00 44 1007.8
20260504235934 66 176 0.0 2.0 0.00 0.00 0.00 44 1007.8
20260504235439 66 142 0.0 1.0 0.00 0.00 0.00 43 1007.8
20260504235117 67 142 0.0 3.0 0.00 0.00 0.00 41 1007.6
20260504235051 67 142 0.0 1.0 0.00 0.00 0.00 43 1007.7
20260504234507 67 142 0.0 3.0 0.00 0.00 0.00 41 1007.6
20260504233432 68 239 0.0 1.0 0.00 0.00 0.00 39 1007.5
20260504232932 68 239 0.0 7.0 0.00 0.00 0.00 39 1007.4
20260504232433 68 239 0.0 7.0 0.00 0.00 0.00 38 1007.4
20260504231932 68 255 0.0 3.0 0.00 0.00 0.00 38 1007.3
20260504231430 68 255 1.0 3.0 0.00 0.00 0.00 38 1007.2
20260504230931 68 248 1.0 3.0 0.00 0.00 0.00 38 1007.2
20260504230724 68 71 1.0 3.0 0.00 0.00 0.00 39 1007.1
20260504225930 69 37 1.0 2.0 0.00 0.00 0.00 38 1007.0
20260504225430 69 168 1.0 4.0 0.00 0.00 0.00 38 1007.0
20260504224930 69 140 1.0 4.0 0.00 0.00 0.00 38 1006.8
20260504224430 69 248 1.0 4.0 0.00 0.00 0.00 39 1006.9
20260504223930 69 140 1.0 6.0 0.00 0.00 0.00 40 1006.8
20260504223429 69 290 1.0 6.0 0.00 0.01 0.00 41 1006.7
20260504222921 69 175 1.0 4.0 0.00 0.01 0.00 39 1006.7
20260504222417 69 197 1.0 4.0 0.00 0.01 0.00 38 1006.7
20260504221909 70 244 1.0 5.0 0.00 0.01 0.00 36 1006.7
20260504221408 69 223 1.0 5.0 0.00 0.01 0.00 37 1006.7
20260504220908 70 244 1.0 4.0 0.00 0.01 0.00 36 1006.7
20260504220409 70 30 1.0 4.0 0.00 0.01 0.00 38 1006.8
20260504215908 70 265 1.0 5.0 0.00 0.01 0.00 37 1006.7
20260504215408 70 188 1.0 5.0 0.00 0.01 0.00 35 1006.8
20260504214908 70 234 1.0 6.0 0.00 0.01 0.00 36 1006.7
20260504214708 70 227 1.0 6.0 0.00 0.01 0.00 36 1006.7
20260504213906 71 261 2.0 5.0 0.00 0.01 0.00 35 1006.6
20260504213406 71 202 1.0 6.0 0.00 0.01 0.00 36 1006.8
20260504212907 71 336 1.0 6.0 0.00 0.01 0.00 35 1006.7
20260504212701 71 275 2.0 10.0 0.00 0.01 0.00 35 1006.8
20260504211906 71 252 2.0 10.0 0.00 0.01 0.00 37 1006.8
20260504211406 71 198 2.0 7.0 0.00 0.01 0.00 37 1006.8
20260504210908 71 188 2.0 7.0 0.00 0.01 0.00 34 1006.7
20260504210407 72 63 2.0 11.0 0.00 0.01 0.00 37 1006.7
20260504210159 71 241 2.0 11.0 0.00 0.01 0.00 35 1006.7
20260504205407 71 248 2.0 6.0 0.00 0.01 0.00 36 1006.7
20260504204907 70 93 2.0 9.0 0.00 0.01 0.00 37 1006.6
20260504204404 70 252 1.0 9.0 0.00 0.01 0.00 37 1006.7
20260504203904 71 227 2.0 8.0 0.00 0.01 0.00 36 1006.6
20260504203658 70 162 2.0 8.0 0.00 0.01 0.00 34 1006.6
20260504202904 71 176 2.0 8.0 0.00 0.01 0.00 35 1006.7
20260504202405 71 100 2.0 11.0 0.00 0.01 0.00 36 1006.7
20260504201904 71 138 2.0 11.0 0.00 0.01 0.00 34 1006.7
20260504201403 70 157 2.0 10.0 0.00 0.01 0.00 36 1006.6
20260504200906 71 105 2.0 10.0 0.00 0.01 0.00 33 1006.7
20260504200402 71 116 2.0 7.0 0.00 0.01 0.00 34 1006.8
20260504195902 72 111 2.0 6.0 0.00 0.01 0.00 32 1006.6
20260504195402 72 90 2.0 6.0 0.00 0.01 0.00 35 1006.7
20260504194903 72 246 2.0 11.0 0.00 0.01 0.00 35 1006.8
20260504194401 72 146 2.0 11.0 0.00 0.01 0.00 34 1006.6
20260504193903 72 99 2.0 12.0 0.00 0.01 0.00 35 1006.6
20260504193403 72 150 2.0 12.0 0.00 0.01 0.00 32 1006.7
20260504193157 73 186 2.0 7.0 0.00 0.01 0.00 34 1006.9
20260504192358 73 249 2.0 7.0 0.00 0.01 0.00 32 1006.8
20260504191855 73 130 2.0 6.0 0.00 0.01 0.00 32 1006.8
20260504191356 72 77 2.0 10.0 0.00 0.01 0.00 34 1006.8
20260504190857 73 227 2.0 10.0 0.00 0.01 0.00 33 1006.9
20260504190356 72 246 1.0 7.0 0.00 0.01 0.00 32 1007.0
20260504190144 71 210 2.0 8.0 0.00 0.01 0.00 34 1006.9
20260504185656 72 92 2.0 8.0 0.00 0.01 0.00 34 1007.0
20260504184856 71 240 2.0 8.0 0.00 0.01 0.00 37 1007.1
20260504184357 72 90 2.0 9.0 0.00 0.01 0.00 32 1007.0
20260504184120 72 227 2.0 9.0 0.00 0.01 0.00 33 1007.2
20260504183357 72 147 2.0 9.0 0.00 0.01 0.00 38 1007.2
20260504182858 73 86 2.0 9.0 0.00 0.01 0.00 34 1007.5
20260504182357 73 100 2.0 8.0 0.00 0.01 0.00 35 1007.2
20260504181958 73 232 2.0 13.0 0.00 0.01 0.00 33 1007.2
20260504181938 72 37 2.0 13.0 0.00 0.01 0.00 35 1007.2
20260504180855 73 84 2.0 10.0 0.00 0.01 0.00 32 1007.5
20260504180357 72 180 3.0 10.0 0.00 0.01 0.00 36 1007.4
20260504175954 72 124 2.0 9.0 0.00 0.01 0.00 33 1007.4
20260504175935 72 101 2.0 9.0 0.00 0.01 0.00 35 1007.1
20260504175149 72 14 2.0 15.0 0.00 0.01 0.00 33 1007.4
20260504174357 71 132 2.0 15.0 0.00 0.01 0.00 34 1007.4
20260504173955 71 219 2.0 8.0 0.00 0.01 0.00 36 1007.7
20260504173936 71 165 2.0 7.0 0.00 0.01 0.00 38 1007.6
20260504172852 71 65 3.0 12.0 0.00 0.01 0.00 36 1007.6
20260504172353 71 125 3.0 12.0 0.00 0.01 0.00 36 1007.6
20260504171853 72 213 2.0 6.0 0.00 0.01 0.00 35 1007.6
20260504171352 72 146 2.0 15.0 0.00 0.01 0.00 38 1007.6
20260504170851 70 37 3.0 15.0 0.00 0.01 0.00 35 1007.6
20260504170352 70 191 2.0 8.0 0.00 0.01 0.00 36 1007.8
20260504170239 70 95 2.0 8.0 0.00 0.01 0.00 34 1007.9
20260504170234 70 103 3.0 8.0 0.00 0.01 0.00 36 1007.9
20260504150834 66 219 3.0 13.0 0.00 0.01 0.00 42 1008.5
20260504150625 66 265 2.0 13.0 0.00 0.01 0.00 40 1008.5
20260504140908 62 204 2.0 10.0 0.00 0.02 0.00 45 1009.7
20260504140849 63 76 3.0 9.0 0.00 0.02 0.00 44 1009.6
20260504130755 58 77 1.0 6.0 0.00 0.02 0.00 52 1010.1
20260504130248 58 159 1.0 6.0 0.00 0.02 0.00 56 1010.1
20260504120231 49 136 1.0 3.0 0.00 0.02 0.00 65 1010.8
20260504110217 45 71 0.0 1.0 0.00 0.02 0.00 71 1011.1
20260504100203 42 312 0.0 1.0 0.00 0.02 0.00 74 1010.7
20260504090133 41 333 0.0 0.0 0.00 0.02 0.00 78 1010.7
20260504081630 40 338 0.0 0.0 0.00 0.02 0.00 82 1010.6
20260504081130 40 338 0.0 0.0 0.00 0.02 0.00 82 1010.7
20260504080631 40 338 0.0 0.0 0.00 0.02 0.00 83 1010.6
20260504080131 40 338 0.0 0.0 0.00 0.02 0.00 83 1010.6
20260504050541 36 338 0.0 0.0 0.00 0.02 0.00 81 1010.8
20260504045536 36 338 0.0 0.0 0.00 0.02 0.00 80 1010.8
20260504045036 37 338 0.0 0.0 0.00 0.02 0.00 80 1010.8
20260504044536 37 338 0.0 0.0 0.00 0.02 0.00 80 1010.8
20260504044036 37 338 0.0 0.0 0.00 0.02 0.00 79 1010.8
20260504043536 37 338 0.0 0.0 0.00 0.03 0.00 79 1010.8
20260504043036 37 338 0.0 0.0 0.00 0.03 0.00 79 1010.7
20260504042535 37 338 0.0 0.0 0.00 0.03 0.00 78 1010.8
20260504042035 37 338 0.0 0.0 0.00 0.03 0.00 78 1010.7
20260504041536 37 338 0.0 0.0 0.00 0.03 0.00 78 1010.6
20260504041319 37 338 0.0 0.0 0.00 0.03 0.00 78 1010.6
20260504040530 37 338 0.0 0.0 0.00 0.03 0.00 78 1010.6
20260504040031 37 338 0.0 0.0 0.00 0.03 0.00 78 1010.5
20260504035530 38 338 0.0 0.0 0.00 0.03 0.03 78 1010.6
20260504035031 38 338 0.0 0.0 0.00 0.03 0.03 78 1010.6
20260504034530 38 338 0.0 0.0 0.00 0.03 0.03 77 1010.5
20260504034031 38 338 0.0 0.0 0.00 0.03 0.03 77 1010.6
20260504033824 38 338 0.0 0.0 0.00 0.03 0.03 77 1010.6
20260504033324 38 338 0.0 0.0 0.00 0.03 0.03 77 1010.5
20260504032823 38 338 0.0 0.0 0.00 0.03 0.03 76 1010.5
20260504032032 38 338 0.0 0.0 0.00 0.03 0.03 76 1010.4
20260504031533 39 338 0.0 0.0 0.00 0.03 0.03 76 1010.2
20260504031032 39 338 0.0 0.0 0.00 0.03 0.03 75 1010.2
20260504030532 39 338 0.0 0.0 0.00 0.03 0.03 74 1010.2
20260504030319 39 338 0.0 0.0 0.00 0.03 0.03 74 1010.2
20260504025531 39 338 0.0 0.0 0.00 0.03 0.03 74 1010.2
20260504025323 39 338 0.0 0.0 0.00 0.03 0.03 74 1010.4
20260504024529 40 338 0.0 0.0 0.00 0.03 0.03 73 1010.2
20260504024031 40 338 0.0 0.0 0.00 0.03 0.03 73 1010.2
20260504023524 40 338 0.0 0.0 0.00 0.03 0.03 72 1010.4
20260504023020 40 338 0.0 0.0 0.00 0.03 0.03 72 1010.2
20260504022511 40 338 0.0 0.0 0.00 0.03 0.03 72 1010.2
20260504022011 40 338 0.0 0.0 0.00 0.03 0.03 71 1010.2
20260504021509 41 338 0.0 0.0 0.00 0.03 0.03 70 1010.2
20260504021303 41 338 0.0 0.0 0.00 0.03 0.03 69 1010.2
20260504020506 41 338 0.0 0.0 0.00 0.03 0.03 69 1010.1
20260504020005 41 338 0.0 0.0 0.00 0.03 0.03 69 1010.0
20260504015756 42 338 0.0 0.0 0.00 0.03 0.03 68 1010.0
20260504015001 42 338 0.0 0.0 0.00 0.03 0.03 68 1010.0
20260504014504 42 338 0.0 0.0 0.00 0.03 0.03 68 1010.0
20260504014003 42 338 0.0 0.0 0.00 0.03 0.03 68 1009.9
20260504013753 43 338 0.0 0.0 0.00 0.03 0.03 67 1010.1
20260504013048 43 338 0.0 0.0 0.00 0.03 0.03 65 1009.9
20260504013033 43 338 0.0 0.0 0.00 0.03 0.03 67 1010.0